Content
SEND FEEDBACK

Daily
Averages
Monthly
Summary
United States of America

JAMESTOWN, NEW YORK


Home > North America > United States > New York
Elevation: 1725 feet     Latitude: 42 09N     Longitude: 079 15W

WEATHER
 
SELECT A DAY
Number of Records: 344,181;   Date Range: 1/1/95 - 8/12/14
 
SHARE

PRINT THIS DATA

[ ← Previous Day ]
WEATHER ALMANAC - JANUARY 21, 2013
[ Next Day → ]
[ °C ]   °F
Weather ElementAverageHighLow
Temperature14.7 °F17.6 °F (4:15 pm)10.4 °F (9:35 pm)
Dewpoint9.3 °F12.2 °F (12:35 am)3.2 °F (4:35 pm)
Humidity79.5 %86 % (12:35 am)53 % (4:35 pm)
Barometer29.88 in29.99 in (12:35 am)29.79 in (1:55 pm)
Wind Speed9.6 mph20.7 mph (6:55 pm)
Wind Gust27.6 mph (6:55 pm)
Weather ElementAverage
Visibility3.6 mi
Wind DirectionWSW (239 °)

Weather ElementTotal
Precipitation---
Heating Degree Days51 (Base 65)
Averaged from 71 records on January 21, 2013
WEATHER CONDITIONS BREAKOUT
WIND DIRECTION BREAKOUT
WEATHER BY HOUR - JANUARY 21, 2013
[ °C ]   °F
Local TimeTemperatureDewpointHumidityBarometerVisibilityWind DirectionWind SpeedGust SpeedPrecipitationEventsConditions
12:35 AM15.8 °F12.2 °F86 %29.99 in3.0 miWNW (290°)6.9 mphOvercast
12:55 AM15.8 °F12.2 °F86 %29.98 in3.0 miNW (310°)5.8 mphOvercast
1:15 AM15.8 °F10.4 °F79 %29.99 in2.0 miNW (320°)8.1 mphOvercast
1:35 AM15.8 °F10.4 °F79 %29.99 in3.0 miNW (310°)9.2 mphOvercast
1:55 AM15.8 °F10.4 °F79 %29.99 in3.0 miNW (320°)8.1 mphOvercast
2:15 AM15.8 °F10.4 °F79 %29.98 in2.5 miNNW (330°)4.6 mphOvercast
2:35 AM15.8 °F10.4 °F79 %29.97 in2.5 miNNW (330°)4.6 mphOvercast
2:55 AM15.8 °F10.4 °F79 %29.97 in4.0 miNNW (330°)3.5 mphOvercast
3:15 AM15.8 °F12.2 °F86 %29.97 in5.0 miCalmMostly Cloudy
3:35 AM14.0 °F10.4 °F86 %29.96 in3.0 miCalmOvercast
3:55 AM14.0 °F10.4 °F86 %29.95 in6.0 miCalmOvercast
4:15 AM14.0 °F10.4 °F86 %29.95 in2.5 miCalmOvercast
4:35 AM14.0 °F10.4 °F86 %29.95 in7.0 miSW (230°)3.5 mphOvercast
4:55 AM15.8 °F10.4 °F79 %29.94 in8.0 miWSW (240°)5.8 mphOvercast
5:15 AM15.8 °F10.4 °F79 %29.94 in5.0 miWSW (250°)6.9 mphOvercast
5:35 AM15.8 °F10.4 °F79 %29.93 in5.0 miWSW (240°)6.9 mphOvercast
5:55 AM15.8 °F10.4 °F79 %29.93 in10.0 miWSW (240°)4.6 mphOvercast
6:15 AM15.8 °F10.4 °F79 %29.93 in10.0 miWSW (240°)5.8 mphOvercast
6:35 AM15.8 °F10.4 °F79 %29.92 in8.0 miSW (230°)5.8 mphOvercast
6:55 AM15.8 °F10.4 °F79 %29.92 in5.0 miSW (230°)5.8 mphOvercast
7:15 AM15.8 °F10.4 °F79 %29.92 in5.0 miSW (230°)5.8 mphOvercast
7:35 AM15.8 °F12.2 °F86 %29.91 in4.0 miSW (230°)8.1 mphOvercast
7:55 AM15.8 °F10.4 °F79 %29.91 in3.0 miSW (230°)6.9 mphOvercast
8:15 AM15.8 °F12.2 °F86 %29.91 in3.0 miSW (230°)8.1 mphOvercast
8:35 AM15.8 °F12.2 °F86 %29.91 in3.0 miSW (230°)6.9 mphOvercast
8:55 AM15.8 °F10.4 °F79 %29.90 in3.0 miSW (220°)10.4 mph16.1 mphOvercast
9:15 AM15.8 °F12.2 °F86 %29.91 in2.0 miSW (220°)10.4 mphOvercast
9:35 AM15.8 °F10.4 °F79 %29.91 in2.0 miSW (230°)10.4 mphOvercast
9:55 AM15.8 °F10.4 °F79 %29.90 in1.8 miWSW (240°)11.5 mphOvercast
10:15 AM15.8 °F10.4 °F79 %29.90 in1.0 miSW (230°)10.4 mphOvercast
10:35 AM15.8 °F10.4 °F79 %29.90 in1.0 miSW (230°)8.1 mphOvercast
10:55 AM15.8 °F10.4 °F79 %29.89 in1.8 miWSW (240°)9.2 mphOvercast
11:15 AM15.8 °F10.4 °F79 %29.87 in1.2 miSW (230°)5.8 mphOvercast
11:35 AM15.8 °F12.2 °F86 %29.86 in1.2 miSW (220°)6.9 mphOvercast
11:55 AM15.8 °F10.4 °F79 %29.85 in1.2 miSW (230°)9.2 mphOvercast
12:15 PM15.8 °F10.4 °F79 %29.84 in2.0 miWSW (240°)9.2 mphOvercast
12:35 PM15.8 °F10.4 °F79 %29.82 in1.8 miWSW (240°)6.9 mphOvercast
12:55 PM15.8 °F10.4 °F79 %29.81 in1.2 miSW (230°)9.2 mphOvercast
1:15 PM15.8 °F10.4 °F79 %29.80 in2.0 miWSW (240°)10.4 mphOvercast
1:35 PM15.8 °F10.4 °F79 %29.80 in1.0 miSW (220°)5.8 mphOvercast
1:55 PM15.8 °F10.4 °F79 %29.79 in2.5 miSW (230°)8.1 mphOvercast
2:15 PM15.8 °F10.4 °F79 %29.80 in5.0 miWSW (250°)18.4 mphOvercast
2:35 PM15.8 °F10.4 °F79 %29.79 in8.0 miWSW (240°)15.0 mphOvercast
2:55 PM15.8 °F10.4 °F79 %29.80 in3.0 miSW (230°)11.5 mphOvercast
3:15 PM15.8 °F8.6 °F73 %29.80 in6.0 miWSW (240°)13.8 mphOvercast
3:35 PM15.8 °F8.6 °F73 %29.79 in10.0 miSW (230°)12.7 mph19.6 mphOvercast
3:55 PM15.8 °F6.8 °F68 %29.79 in10.0 miSW (230°)12.7 mphMostly Cloudy
4:15 PM17.6 °F6.8 °F63 %29.79 in10.0 miSW (230°)15.0 mph20.7 mphMostly Cloudy
4:35 PM17.6 °F3.2 °F53 %29.80 in10.0 miWSW (240°)19.6 mph24.2 mphMostly Cloudy
4:55 PM15.8 °F6.8 °F68 %29.81 in2.5 miWest (270°)15.0 mph26.5 mphOvercast
5:15 PM15.8 °F8.6 °F73 %29.82 in2.0 miWest (270°)16.1 mph21.9 mphOvercast
5:35 PM15.8 °F8.6 °F73 %29.83 in1.8 miWest (260°)12.7 mph21.9 mphOvercast
5:55 PM14.0 °F8.6 °F79 %29.83 in5.0 miWest (260°)13.8 mph21.9 mphOvercast
6:15 PM14.0 °F8.6 °F79 %29.83 in4.0 miWest (260°)15.0 mph23.0 mphMostly Cloudy
6:35 PM14.0 °F6.8 °F73 %29.83 in10.0 miWest (260°)12.7 mphOvercast
6:55 PM14.0 °F6.8 °F73 %29.84 in5.0 miWest (260°)20.7 mph27.6 mphMostly Cloudy
7:15 PM12.2 °F8.6 °F85 %29.84 in1.2 miWSW (240°)18.4 mph24.2 mphOvercast
7:35 PM12.2 °F8.6 °F85 %29.84 in1.8 miWest (260°)11.5 mphOvercast
7:55 PM12.2 °F6.8 °F79 %29.84 in4.0 miWSW (250°)11.5 mphMostly Cloudy
8:15 PM12.2 °F6.8 °F79 %29.84 in1.2 miWSW (240°)15.0 mphOvercast
8:35 PM12.2 °F8.6 °F85 %29.84 in1.0 miWSW (250°)12.7 mphOvercast
8:55 PM12.2 °F8.6 °F85 %29.84 in1.2 miWSW (240°)13.8 mphOvercast
9:15 PM12.2 °F8.6 °F85 %29.85 in0.8 miWest (260°)13.8 mphOvercast
9:35 PM10.4 °F6.8 °F85 %29.86 in0.2 miWNW (300°)13.8 mph23.0 mphOvercast
9:55 PM10.4 °F5.0 °F79 %29.86 in1.0 miWNW (300°)10.4 mphOvercast
10:15 PM10.4 °F5.0 °F79 %29.86 in1.8 miWest (280°)9.2 mph18.4 mphOvercast
10:35 PM10.4 °F6.8 °F85 %29.86 in1.8 miWest (270°)9.2 mphOvercast
10:55 PM10.4 °F6.8 °F85 %29.86 in1.2 miWest (270°)8.1 mphOvercast
11:15 PM10.4 °F3.2 °F73 %29.86 in1.8 miWest (270°)10.4 mph17.3 mphOvercast
11:35 PM10.4 °F5.0 °F79 %29.85 in1.0 miWest (260°)11.5 mphOvercast
11:55 PM10.4 °F6.8 °F85 %29.85 in1.2 miWest (270°)11.5 mph16.1 mphOvercast
Hourly data recorded from KJHW, located miles away from Jamestown, New York







STORIES FROM OUR PARTNERS